[[{"header":{"parameterUnit":"m.s-1","parameterCategory":2,"la1":30.2991,"la2":30.254,"lo1":-89.0895,"lo2":-89.0444,"dy":0.0017,"dx":0.0017,"nx":28,"ny":28,"refTime":"2024-08-20T03:00:00:Z","depth":"0","parameterNumber":2,"parameterNumberName":"U-component_of_CURRENTS"},"data":[0,0,0,0,0,0,0,0,0,0,0,0,0,0,0,0,0,0,0,0,0,0,0,0,0,0,0,0,0,0,0,0,0,0,0,0,0,0,0,0,0,0,0,0,0,0,0,0,0,0,0,0,0,0,0,0,0,0,0.2996,0.2997,0,0.3076,0.3077,0.3078,0.3097,0.3096,0.3096,0.3095,0.3075,0.3075,0.3075,0,0,0,0,0,0,0,0,0,0,0,0,0,0.2872,0.2874,0.2996,0.2997,0.2998,0.3076,0.3077,0.3078,0.3097,0.3096,0.3095,0.3095,0.3075,0.3075,0.3075,0,0,0,0,0,0,0,0,0,0,0,0,0,0.2936,0.2875,0.2996,0.3017,0.302,0.3076,0.3077,0.3078,0.3097,0.3096,0.3095,0.3095,0.3075,0.3075,0.3075,0.309,0,0,0.3075,0.3075,0,0,0,0,0,0,0,0,0.2932,0.294,0.3013,0.3016,0.3019,0.3076,0.3026,0.3078,0.3097,0.3067,0.3095,0.3094,0.3067,0.3068,0.3085,0.3089,0.3088,0.3075,0.3075,0.3075,0.3075,0,0,0,0,0,0,0,0.2928,0.2937,0.3027,0.3014,0.3018,0.3027,0.3035,0.3036,0.3068,0.307,0.3071,0.3081,0.3068,0.3085,0.3085,0.3088,0.3075,0.3075,0.3075,0.3075,0.3111,0.3112,0,0,0,0,0,0,0.2919,0.2933,0.3025,0.303,0.2973,0.303,0.3039,0.3058,0.307,0.3073,0.3082,0.3082,0.3086,0.3085,0.3084,0.3122,0.3075,0.3075,0.3075,0.311,0.3111,0.3112,0,0,0,0,0,0,0.2917,0.2927,0.3022,0.2983,0.2995,0.3033,0.3054,0.306,0.3082,0.3081,0.3081,0.3098,0.3085,0.3084,0.3096,0.312,0.3075,0.3075,0.3109,0.311,0.3112,0.3185,0,0,0,0,0,0,0.2913,0.2926,0.2941,0.2983,0.2997,0.3061,0.3055,0.3062,0.3089,0.309,0.3094,0.3092,0.3085,0.3097,0.3096,0.3119,0.3075,0.3108,0.311,0.3111,0.3181,0.3188,0.3195,0,0,0,0,0,0.2908,0.2934,0.2942,0.2953,0.3016,0.3062,0.3071,0.3094,0.3091,0.3109,0.3112,0.3092,0.3108,0.3098,0.3097,0.312,0.3107,0.3109,0.3111,0.3178,0.3187,0.3195,0,0,0,0,0,0,0.289,0.294,0.2949,0.2989,0.3024,0.3066,0.3087,0.3099,0.312,0.3115,0.3108,0.3107,0.3128,0.3112,0.3101,0.3135,0.3103,0.3105,0.3154,0.3162,0.3169,0.3186,0.3075,0,0,0,0,0,0.2892,0.2922,0.2968,0.2998,0.3018,0.3052,0.3074,0.309,0.3112,0.3121,0.3124,0.3125,0.3138,0.314,0.3145,0.3163,0.319,0.3175,0.3182,0.3188,0.3201,0.3252,0.3265,0.312,0.312,0.312,0,0,0.2889,0.2924,0.2938,0.2996,0.3024,0.306,0.3064,0.3101,0.3129,0.3113,0.3145,0.315,0.3149,0.3176,0.3183,0.3164,0.3254,0.3191,0.3197,0.3207,0.3255,0.327,0.3283,0.3121,0.3121,0.3121,0,0,0.29,0.2933,0.2961,0.2996,0.3045,0.3069,0.308,0.3124,0.3144,0.3176,0.3176,0.3201,0.3208,0.3227,0.3234,0.328,0.3291,0.3271,0.332,0.3369,0.3381,0.3393,0.3491,0.3511,0.3272,0.3272,0.3272,0,0.2893,0.294,0.2975,0.3015,0.3045,0.3072,0.3107,0.3138,0.3177,0.3199,0.3188,0.3239,0.3238,0.3289,0.331,0.3299,0.3341,0.329,0.338,0.3391,0.3402,0.35,0.352,0.3276,0.3275,0.3275,0.3275,0,0.2928,0.2966,0.2988,0.3044,0.3081,0.3117,0.3161,0.3193,0.3212,0.324,0.3293,0.331,0.3342,0.3347,0.3346,0.342,0.3435,0.3388,0.3363,0.3421,0.3521,0.3541,0.3281,0.328,0.3279,0.3278,0,0,0.2908,0.2994,0.3,0.3039,0.31,0.314,0.3184,0.3242,0.3284,0.3317,0.3373,0.3415,0.343,0.344,0.3447,0.3492,0.3621,0.3477,0.3478,0.3585,0.3777,0.3833,0.386,0.3586,0.3589,0.3591,0.3834,0,0.2922,0.3,0.3033,0.3101,0.315,0.319,0.3236,0.329,0.3328,0.3387,0.3422,0.3468,0.3463,0.3486,0.3539,0.3595,0.367,0.3563,0.3696,0.3702,0.375,0.3883,0.3746,0.3954,0.3854,0.3857,0.386,0,0.2945,0.3,0.3069,0.3157,0.318,0.3217,0.3304,0.3347,0.3422,0.3454,0.3509,0.353,0.3626,0.3587,0.3754,0.3687,0.375,0.379,0.3799,0.3836,0.3793,0.3869,0.3994,0.3828,0.3891,0.3888,0.3886,0,0.2939,0.3024,0.3083,0.3114,0.3212,0.3247,0.329,0.3366,0.3424,0.3493,0.355,0.3631,0.3712,0.3777,0.3891,0.3824,0.4077,0.3983,0.4105,0.4111,0.4015,0.4008,0.3998,0.4103,0.4103,0.4102,0.4101,0,0.2955,0.3011,0.3088,0.3128,0.321,0.3259,0.3339,0.3392,0.3473,0.3546,0.3588,0.3681,0.3762,0.3905,0.3953,0.4145,0.4142,0.4169,0.4186,0.4042,0.4034,0.3898,0.3817,0.4111,0.4109,0.4107,0.4106,0,0.2982,0.3011,0.3103,0.3193,0.3216,0.3284,0.3378,0.343,0.3508,0.3606,0.3632,0.3781,0.3974,0.409,0.4247,0.4271,0.4282,0.4448,0.4312,0.4309,0.4222,0.4152,0.4104,0.3988,0.4614,0.4617,0.4619,0,0.3021,0.3062,0.3161,0.3195,0.324,0.3322,0.3364,0.344,0.3489,0.3665,0.3713,0.3939,0.4075,0.4387,0.4484,0.4644,0.4435,0.4584,0.4414,0.4257,0.4189,0.3996,0.3884,0.4336,0.4336,0.4336,0.4336,0,0.3116,0.3139,0.321,0.3258,0.33,0.3358,0.3415,0.3458,0.3539,0.3641,0.3787,0.3908,0.4238,0.4364,0.4612,0.4658,0.4345,0.4591,0.443,0.4005,0.3789,0.367,0.4172,0.4335,0.4335,0.4335,0.4335,0.4335,0.3201,0.3246,0.3289,0.3339,0.3362,0.3363,0.3381,0.3435,0.3512,0.3621,0.3778,0.395,0.4163,0.4504,0.4519,0.4464,0.4425,0.4309,0.426,0.4096,0.3896,0.4452,0.462,0.4621,0.4623,0.4624,0.4625,0,0.3289,0.3301,0.3353,0.3369,0.3363,0.3372,0.3388,0.3375,0.3419,0.3571,0.37,0.3924,0.4059,0.4179,0.4245,0.4114,0.3882,0.3985,0.3611,0.3533,0.4037,0.3932,0.3952,0.3953,0.3953,0.3953,0.3953,0.3953,0.3334,0.337,0.3366,0.3353,0.3343,0.3288,0.3273,0.3261,0.3326,0.3405,0.3524,0.367,0.3832,0.3916,0.3792,0.3713,0.3381,0.3308,0.3259,0.3534,0.3554,0.3574,0.3452,0.3371,0.3371,0.2586,0.258,0.2575]},{"header":{"parameterUnit":"m.s-1","parameterCategory":2,"la1":30.2991,"la2":30.254,"lo1":-89.0895,"lo2":-89.0444,"dy":0.0017,"dx":0.0017,"nx":28,"ny":28,"refTime":"2024-08-20T03:00:00:Z","depth":"0","parameterNumber":3,"parameterNumberName":"V-component_of_CURRENTS"},"data":[0,0,0,0,0,0,0,0,0,0,0,0,0,0,0,0,0,0,0,0,0,0,0,0,0,0,0,0,0,0,0,0,0,0,0,0,0,0,0,0,0,0,0,0,0,0,0,0,0,0,0,0,0,0,0,0,0,0,-0.0257,-0.0257,0,-0.0349,-0.0351,-0.0352,-0.0428,-0.0428,-0.0428,-0.0429,-0.0506,-0.0507,-0.0509,0,0,0,0,0,0,0,0,0,0,0,0,0,-0.0191,-0.0192,-0.0257,-0.0257,-0.0258,-0.0349,-0.0351,-0.0353,-0.0428,-0.0428,-0.0428,-0.0429,-0.0505,-0.0507,-0.0509,0,0,0,0,0,0,0,0,0,0,0,0,0,-0.025,-0.0192,-0.0257,-0.0303,-0.0308,-0.0349,-0.0351,-0.0353,-0.0428,-0.0428,-0.0429,-0.0429,-0.0504,-0.0507,-0.0509,-0.0516,0,0,-0.0517,-0.0518,0,0,0,0,0,0,0,0,-0.0246,-0.0253,-0.0295,-0.03,-0.0305,-0.0373,-0.0356,-0.0405,-0.0427,-0.0387,-0.0429,-0.0429,-0.0456,-0.0463,-0.0486,-0.0519,-0.0523,-0.0518,-0.0519,-0.052,-0.0521,0,0,0,0,0,0,0,-0.0242,-0.0249,-0.0299,-0.0296,-0.0302,-0.0334,-0.0343,-0.0366,-0.0421,-0.0391,-0.0395,-0.0397,-0.0459,-0.0484,-0.0489,-0.0524,-0.0518,-0.052,-0.0521,-0.0522,-0.0554,-0.0553,0,0,0,0,0,0,-0.0218,-0.0245,-0.0295,-0.0301,-0.0271,-0.0335,-0.0345,-0.0355,-0.0422,-0.0431,-0.0397,-0.04,-0.0479,-0.0485,-0.0491,-0.0491,-0.052,-0.0523,-0.0524,-0.0555,-0.0554,-0.0553,0,0,0,0,0,0,-0.0216,-0.0222,-0.0292,-0.0271,-0.0281,-0.0334,-0.0345,-0.0356,-0.0373,-0.0426,-0.0436,-0.0401,-0.048,-0.0488,-0.0505,-0.0495,-0.0524,-0.0526,-0.0555,-0.0554,-0.0553,-0.0498,0,0,0,0,0,0,-0.0214,-0.0221,-0.0219,-0.0269,-0.0281,-0.0298,-0.0345,-0.0358,-0.0372,-0.0378,-0.0432,-0.0441,-0.0481,-0.0501,-0.0508,-0.0499,-0.0528,-0.0556,-0.0555,-0.0554,-0.0501,-0.0495,-0.049,0,0,0,0,0,-0.0212,-0.0203,-0.0219,-0.0224,-0.0278,-0.0296,-0.0305,-0.0349,-0.0371,-0.0369,-0.0412,-0.0439,-0.0497,-0.0502,-0.0511,-0.0503,-0.0557,-0.0555,-0.0554,-0.0503,-0.0496,-0.0491,0,0,0,0,0,0,-0.0172,-0.0211,-0.0229,-0.0233,-0.0253,-0.0306,-0.0309,-0.0336,-0.0371,-0.0375,-0.0432,-0.0443,-0.0455,-0.0481,-0.0485,-0.0506,-0.053,-0.053,-0.0489,-0.0483,-0.0478,-0.049,-0.0531,0,0,0,0,0,-0.016,-0.0164,-0.0203,-0.0201,-0.021,-0.0256,-0.0269,-0.0293,-0.0329,-0.0346,-0.0385,-0.0424,-0.0456,-0.0469,-0.0499,-0.0507,-0.0532,-0.0506,-0.05,-0.0496,-0.0511,-0.0561,-0.0563,-0.0547,-0.0547,-0.0547,0,0,-0.0141,-0.0163,-0.0165,-0.0192,-0.0216,-0.0226,-0.0267,-0.0273,-0.0285,-0.0346,-0.037,-0.0404,-0.0453,-0.047,-0.0477,-0.049,-0.0499,-0.0494,-0.049,-0.0508,-0.056,-0.0562,-0.0563,-0.0546,-0.0547,-0.0547,0,0,-0.0103,-0.0126,-0.0119,-0.0135,-0.0156,-0.0187,-0.0181,-0.0224,-0.0247,-0.0265,-0.0318,-0.0349,-0.0387,-0.0433,-0.0458,-0.0438,-0.047,-0.0435,-0.0423,-0.0471,-0.0473,-0.0476,-0.0449,-0.045,-0.0434,-0.0433,-0.0433,0,-0.0079,-0.0088,-0.0115,-0.0115,-0.0132,-0.0165,-0.0167,-0.0189,-0.023,-0.0253,-0.0259,-0.0346,-0.0376,-0.0427,-0.0422,-0.0429,-0.044,-0.0443,-0.0466,-0.0469,-0.0473,-0.0446,-0.0448,-0.0431,-0.0431,-0.0431,-0.0432,0,-0.0044,-0.0053,-0.0047,-0.0069,-0.0082,-0.0085,-0.012,-0.0132,-0.016,-0.0194,-0.0237,-0.029,-0.0347,-0.0352,-0.0384,-0.0424,-0.0413,-0.0453,-0.0484,-0.0471,-0.0442,-0.0445,-0.0427,-0.0428,-0.0428,-0.0429,0,0,0.0004,-0.0021,-0.0021,-0.0034,-0.0065,-0.0075,-0.0086,-0.0122,-0.0131,-0.0174,-0.0198,-0.0267,-0.0302,-0.0334,-0.0376,-0.0418,-0.0425,-0.0442,-0.0446,-0.0418,-0.048,-0.0402,-0.0397,-0.0477,-0.0479,-0.048,-0.0427,0,0.0031,0.0036,0.0011,0.0006,-0.0005,-0.0045,-0.0056,-0.0086,-0.0111,-0.013,-0.0199,-0.0228,-0.0292,-0.0306,-0.0366,-0.0408,-0.0441,-0.0433,-0.0495,-0.0496,-0.0433,-0.0403,-0.0353,-0.0298,-0.043,-0.0431,-0.0431,0,0.0063,0.0053,0.0055,0.0019,0.0012,0.0007,-0.0028,-0.0039,-0.0074,-0.009,-0.0147,-0.0185,-0.0245,-0.0295,-0.0394,-0.0385,-0.0436,-0.0473,-0.0473,-0.0434,-0.0427,-0.0345,-0.0299,-0.0514,-0.0436,-0.0435,-0.0435,0,0.0094,0.0077,0.0075,0.0064,0.0031,0.0019,-0.0,-0.0031,-0.001,-0.0059,-0.0023,-0.0142,-0.013,-0.0264,-0.0321,-0.0368,-0.0396,-0.0471,-0.045,-0.0441,-0.043,-0.0418,-0.0611,-0.0561,-0.0561,-0.0561,-0.0562,0,0.0116,0.0112,0.009,0.0086,0.0099,0.0048,0.007,0.0042,0.0048,0.0118,0.0004,0.0067,-0.0125,-0.0149,-0.0279,-0.0328,-0.0365,-0.0437,-0.0436,-0.0398,-0.0385,-0.0598,-0.0711,-0.0559,-0.056,-0.056,-0.056,0,0.0154,0.0136,0.0142,0.0116,0.0118,0.0128,0.0158,0.0193,0.0174,0.0274,0.0278,0.0253,0.0234,0.0078,-0.0064,-0.0203,-0.0393,-0.0325,-0.0219,-0.0209,-0.0427,-0.0535,-0.0675,-0.076,-0.032,-0.0318,-0.0316,0,0.0175,0.0181,0.0194,0.0225,0.022,0.0239,0.0282,0.0266,0.0332,0.0425,0.0504,0.0519,0.0594,0.0432,0.0186,-0.0006,-0.0249,-0.0135,-0.0252,-0.0423,-0.0546,-0.0632,-0.0702,-0.0185,-0.0182,-0.018,-0.0179,0,0.0228,0.024,0.0258,0.0316,0.0366,0.043,0.0485,0.0567,0.0602,0.0717,0.0886,0.0957,0.0856,0.0721,0.0443,0.0256,-0.0269,-0.0096,-0.0339,-0.0505,-0.0551,-0.0634,-0.019,-0.0159,-0.0161,-0.0163,-0.0164,-0.0164,0.0297,0.0328,0.0365,0.0417,0.0495,0.0604,0.0673,0.079,0.0946,0.1151,0.1209,0.1406,0.1144,0.0803,0.0504,-0.0039,-0.0081,-0.0258,-0.0378,-0.0452,-0.0547,-0.0013,0.0049,0.0048,0.0048,0.0047,0.0047,0,0.0364,0.0395,0.0461,0.0536,0.0636,0.0652,0.0806,0.0905,0.1127,0.1419,0.1608,0.1698,0.1324,0.0863,0.0168,-0.0265,-0.0474,-0.0535,-0.0714,-0.078,-0.036,-0.0373,-0.032,-0.032,-0.0319,-0.0319,-0.0319,-0.0319,0.041,0.0468,0.0483,0.0636,0.0705,0.0836,0.0928,0.1124,0.1342,0.1744,0.1993,0.2146,0.1802,0.05,-0.0457,-0.0691,-0.1031,-0.1044,-0.1246,-0.104,-0.1027,-0.1014,-0.1058,-0.115,-0.1151,-0.1624,-0.1629,-0.1633]}],[{"header":{"parameterUnit":"m.s-1","parameterCategory":2,"la1":30.2991,"la2":30.254,"lo1":-89.0895,"lo2":-89.0444,"dy":0.0017,"dx":0.0017,"nx":28,"ny":28,"refTime":"2024-08-20T03:00:00:Z","depth":"2","parameterNumber":2,"parameterNumberName":"U-component_of_CURRENTS"},"data":[0,0,0,0,0,0,0,0,0,0,0,0,0,0,0,0,0,0,0,0,0,0,0,0,0,0,0,0,0,0,0,0,0,0,0,0,0,0,0,0,0,0,0,0,0,0,0,0,0,0,0,0,0,0,0,0,0,0,0.2386,0.2386,0,0.2423,0.2423,0.2424,0.2449,0.2449,0.2449,0.2449,0.2458,0.2459,0.2459,0,0,0,0,0,0,0,0,0,0,0,0,0,0.2298,0.23,0.2386,0.2386,0.2387,0.2423,0.2424,0.2424,0.2449,0.2449,0.2449,0.2449,0.2458,0.2459,0.2459,0,0,0,0,0,0,0,0,0,0,0,0,0,0.2338,0.2301,0.2386,0.2402,0.2404,0.2423,0.2424,0.2424,0.2449,0.2449,0.2449,0.2449,0.2458,0.2458,0.2459,0.246,0,0,0.246,0.246,0,0,0,0,0,0,0,0,0.2335,0.2341,0.24,0.2401,0.2403,0.243,0.2396,0.2434,0.2449,0.2434,0.2449,0.2449,0.2445,0.2446,0.2456,0.2461,0.2461,0.246,0.246,0.246,0.246,0,0,0,0,0,0,0,0.2333,0.2339,0.2403,0.24,0.2402,0.2394,0.24,0.2403,0.244,0.2435,0.2437,0.2438,0.2446,0.2456,0.2457,0.2461,0.246,0.246,0.246,0.246,0.2512,0.2513,0,0,0,0,0,0,0.2327,0.2337,0.2401,0.2404,0.2366,0.2395,0.2402,0.2423,0.2441,0.2443,0.2438,0.2439,0.2455,0.2456,0.2457,0.2507,0.246,0.2461,0.2461,0.2511,0.2512,0.2513,0,0,0,0,0,0,0.2325,0.2333,0.24,0.2368,0.2376,0.2397,0.242,0.2423,0.2453,0.2442,0.2445,0.2465,0.2456,0.2456,0.2476,0.2506,0.2461,0.2461,0.2509,0.2511,0.2513,0.2577,0,0,0,0,0,0,0.2323,0.2333,0.2352,0.2369,0.2378,0.2425,0.2419,0.2424,0.2451,0.2454,0.2466,0.2466,0.2456,0.2476,0.2477,0.2506,0.2461,0.2508,0.251,0.2512,0.2574,0.2581,0.2587,0,0,0,0,0,0.232,0.2348,0.2353,0.2361,0.2402,0.2425,0.243,0.2445,0.2453,0.2471,0.2478,0.2466,0.249,0.2477,0.2478,0.2507,0.2507,0.2509,0.2512,0.2571,0.258,0.2587,0,0,0,0,0,0,0.232,0.2353,0.2359,0.2397,0.2414,0.2429,0.2447,0.2459,0.2481,0.2485,0.248,0.248,0.2511,0.2499,0.2484,0.2528,0.2497,0.25,0.2542,0.255,0.2557,0.2534,0.2462,0,0,0,0,0,0.2327,0.2357,0.238,0.2407,0.242,0.2438,0.2452,0.2463,0.2478,0.249,0.2502,0.251,0.252,0.2526,0.2533,0.2554,0.2586,0.2574,0.2581,0.2587,0.2569,0.2668,0.2683,0.2522,0.2522,0.2522,0,0,0.2327,0.2354,0.2367,0.2409,0.2424,0.2437,0.2448,0.2475,0.2493,0.2485,0.2524,0.2537,0.2532,0.2559,0.2572,0.2554,0.2655,0.259,0.2595,0.2573,0.2673,0.2689,0.2703,0.2524,0.2523,0.2523,0,0,0.2333,0.2374,0.2392,0.2415,0.2444,0.2452,0.2465,0.2497,0.2524,0.2555,0.2559,0.2584,0.2605,0.2608,0.2609,0.2654,0.2691,0.2669,0.2684,0.2783,0.2797,0.281,0.2899,0.2919,0.267,0.2671,0.2671,0,0.233,0.2363,0.2399,0.2422,0.2442,0.246,0.2478,0.2502,0.2539,0.2568,0.2573,0.2631,0.2621,0.2657,0.2663,0.2669,0.2737,0.2656,0.2794,0.2807,0.2819,0.2907,0.2928,0.2674,0.2674,0.2673,0.2673,0,0.2344,0.2372,0.2388,0.242,0.2449,0.247,0.2504,0.2533,0.2566,0.2598,0.2666,0.2676,0.272,0.2718,0.2693,0.2774,0.2801,0.2798,0.2776,0.284,0.2928,0.2949,0.2679,0.2678,0.2677,0.2676,0,0,0.2322,0.2384,0.2387,0.2413,0.2457,0.2483,0.2512,0.2555,0.26,0.2646,0.2727,0.2728,0.2777,0.2779,0.2788,0.2831,0.2969,0.2847,0.2851,0.294,0.3209,0.3135,0.3151,0.3018,0.3021,0.3024,0.3247,0,0.2314,0.2355,0.2393,0.2428,0.2451,0.2492,0.2539,0.2587,0.2631,0.2716,0.2756,0.2831,0.2796,0.2843,0.2893,0.2955,0.3024,0.2908,0.3127,0.3133,0.3064,0.3172,0.2859,0.3023,0.3268,0.3272,0.3274,0,0.2305,0.234,0.2377,0.246,0.2481,0.251,0.2592,0.2645,0.2742,0.2799,0.2876,0.2926,0.3009,0.2976,0.3138,0.3085,0.3148,0.3177,0.3189,0.31,0.3097,0.2993,0.3053,0.331,0.3307,0.3304,0.3302,0,0.2277,0.2329,0.2365,0.239,0.248,0.2519,0.2579,0.2667,0.2758,0.2866,0.2946,0.3055,0.3166,0.3241,0.3302,0.3259,0.348,0.3444,0.3436,0.3433,0.319,0.3158,0.3563,0.3563,0.3562,0.3562,0.3561,0,0.227,0.231,0.2355,0.2388,0.2481,0.2536,0.2649,0.2721,0.2849,0.2971,0.3021,0.3132,0.3243,0.3366,0.3387,0.3494,0.3583,0.3454,0.3491,0.3205,0.3173,0.3419,0.3399,0.357,0.3568,0.3567,0.3565,0,0.2309,0.23,0.2397,0.2475,0.248,0.2594,0.2732,0.2819,0.2913,0.3072,0.3124,0.3279,0.342,0.3493,0.3644,0.3631,0.3698,0.3708,0.3355,0.3343,0.3566,0.3547,0.374,0.3739,0.3739,0.3738,0.3738,0,0.2342,0.236,0.2489,0.2526,0.2578,0.2686,0.2756,0.2873,0.2978,0.3143,0.3249,0.34,0.3474,0.3665,0.3639,0.3688,0.3753,0.3465,0.3287,0.3571,0.3588,0.3569,0.3552,0.3016,0.3009,0.3004,0.3,0,0.2415,0.2476,0.2547,0.2611,0.2681,0.2799,0.2901,0.2972,0.3105,0.3177,0.3285,0.3318,0.3475,0.3372,0.3444,0.3423,0.3417,0.3364,0.3802,0.3002,0.2901,0.2913,0.2917,0.2954,0.2959,0.2962,0.2965,0.2967,0.2489,0.2547,0.2569,0.2647,0.2732,0.2807,0.2828,0.2893,0.2958,0.2944,0.3169,0.3092,0.315,0.305,0.3007,0.2985,0.3201,0.307,0.3081,0.3098,0.2957,0.2858,0.2879,0.2883,0.2886,0.2889,0.2892,0,0.2463,0.2469,0.2547,0.2581,0.2628,0.2727,0.2815,0.2743,0.2673,0.2738,0.2729,0.2514,0.2475,0.255,0.2423,0.2465,0.2387,0.2401,0.2256,0.2304,0.2347,0.2161,0.1876,0.1873,0.187,0.1867,0,0,0.2431,0.2402,0.24,0.2368,0.2424,0.2404,0.2422,0.2288,0.2276,0.2115,0.2052,0.2231,0.2412,0.206,0.2061,0.1943,0.2092,0.1874,0.2688,0.2559,0.2596,0.274,0.251,0,0,0,0,0]},{"header":{"parameterUnit":"m.s-1","parameterCategory":2,"la1":30.2991,"la2":30.254,"lo1":-89.0895,"lo2":-89.0444,"dy":0.0017,"dx":0.0017,"nx":28,"ny":28,"refTime":"2024-08-20T03:00:00:Z","depth":"2","parameterNumber":3,"parameterNumberName":"V-component_of_CURRENTS"},"data":[0,0,0,0,0,0,0,0,0,0,0,0,0,0,0,0,0,0,0,0,0,0,0,0,0,0,0,0,0,0,0,0,0,0,0,0,0,0,0,0,0,0,0,0,0,0,0,0,0,0,0,0,0,0,0,0,0,0,0.0057,0.0057,0,-0.0002,-0.0003,-0.0004,-0.0065,-0.0066,-0.0066,-0.0067,-0.0176,-0.0179,-0.0181,0,0,0,0,0,0,0,0,0,0,0,0,0,0.0071,0.0071,0.0057,0.0057,0.0056,-0.0002,-0.0003,-0.0005,-0.0065,-0.0066,-0.0066,-0.0067,-0.0175,-0.0178,-0.0181,0,0,0,0,0,0,0,0,0,0,0,0,0,0.0039,0.0071,0.0057,0.0023,0.0019,-0.0002,-0.0003,-0.0005,-0.0065,-0.0066,-0.0066,-0.0067,-0.0174,-0.0178,-0.0182,-0.0194,0,0,-0.0194,-0.0195,0,0,0,0,0,0,0,0,0.0041,0.0038,0.0028,0.0025,0.0021,-0.0023,-0.0038,-0.0069,-0.0065,-0.0038,-0.0067,-0.0067,-0.0126,-0.0134,-0.015,-0.02,-0.0204,-0.0194,-0.0196,-0.0198,-0.0199,0,0,0,0,0,0,0,0.0043,0.004,0.0028,0.0028,0.0024,-0.0005,-0.001,-0.0045,-0.0083,-0.0041,-0.0044,-0.0043,-0.0129,-0.0146,-0.0153,-0.0206,-0.0194,-0.0197,-0.02,-0.0201,-0.028,-0.0279,0,0,0,0,0,0,0.0064,0.0043,0.003,0.0027,0.0036,-0.0004,-0.0011,-0.0012,-0.0082,-0.0091,-0.0042,-0.0045,-0.0139,-0.0149,-0.0157,-0.0179,-0.0198,-0.0202,-0.0204,-0.028,-0.0279,-0.0279,0,0,0,0,0,0,0.0064,0.0063,0.0033,0.0037,0.0032,-0.0003,-0.0005,-0.0013,-0.003,-0.0081,-0.0093,-0.005,-0.014,-0.0152,-0.0186,-0.0183,-0.0203,-0.0207,-0.028,-0.028,-0.0279,-0.0221,0,0,0,0,0,0,0.0065,0.0064,0.0067,0.0039,0.0033,0.0028,-0.0004,-0.0013,-0.0026,-0.0031,-0.0092,-0.0103,-0.0141,-0.018,-0.019,-0.0189,-0.021,-0.028,-0.028,-0.0279,-0.0223,-0.0218,-0.0214,0,0,0,0,0,0.0066,0.0078,0.0068,0.0066,0.004,0.0029,0.0023,-0.0008,-0.0025,-0.0028,-0.0071,-0.0101,-0.0184,-0.0182,-0.0194,-0.0195,-0.0281,-0.028,-0.0279,-0.0225,-0.0219,-0.0214,0,0,0,0,0,0,0.0086,0.0072,0.0061,0.0067,0.0054,0.0021,0.0018,-0.0002,-0.0039,-0.0045,-0.01,-0.0113,-0.0142,-0.0174,-0.0171,-0.0216,-0.0237,-0.0238,-0.0191,-0.0186,-0.0182,-0.0153,-0.0213,0,0,0,0,0,0.0094,0.01,0.008,0.0088,0.0082,0.005,0.0041,0.0023,-0.0008,-0.0025,-0.0067,-0.0112,-0.0149,-0.0171,-0.0208,-0.0232,-0.0254,-0.0239,-0.0235,-0.0231,-0.0215,-0.0263,-0.0261,-0.0277,-0.0277,-0.0278,0,0,0.0108,0.0101,0.0105,0.0093,0.0076,0.0074,0.0042,0.0036,0.0031,-0.0031,-0.0056,-0.0098,-0.0151,-0.018,-0.0195,-0.0207,-0.0234,-0.023,-0.0227,-0.0213,-0.0262,-0.026,-0.0259,-0.0277,-0.0277,-0.0277,0,0,0.0139,0.0127,0.0141,0.0131,0.0118,0.0098,0.0101,0.007,0.005,0.0028,-0.002,-0.0056,-0.0113,-0.0151,-0.0177,-0.017,-0.021,-0.0185,-0.0143,-0.019,-0.0189,-0.0188,-0.0195,-0.0196,-0.0184,-0.0184,-0.0184,0,0.0155,0.0166,0.0144,0.0151,0.0147,0.0113,0.0122,0.01,0.0062,0.0055,0.003,-0.0051,-0.0098,-0.0134,-0.0131,-0.016,-0.018,-0.0159,-0.0183,-0.0184,-0.0184,-0.0192,-0.0193,-0.0181,-0.0181,-0.0182,-0.0182,0,0.0191,0.0198,0.0206,0.0201,0.0193,0.0198,0.0169,0.0162,0.0136,0.0111,0.0075,0.0006,-0.0043,-0.0064,-0.0096,-0.0121,-0.0131,-0.0172,-0.0193,-0.0179,-0.0188,-0.019,-0.0177,-0.0178,-0.0179,-0.018,0,0,0.0229,0.0233,0.0235,0.0244,0.0219,0.0222,0.0218,0.0209,0.0219,0.0164,0.0163,0.0085,0.0045,0.0013,-0.0044,-0.0077,-0.0095,-0.0116,-0.012,-0.0116,-0.0168,-0.0169,-0.0172,-0.0147,-0.0147,-0.0148,-0.0166,0,0.0263,0.0299,0.028,0.0306,0.0319,0.0288,0.0287,0.0274,0.0255,0.0248,0.0175,0.0146,0.0071,0.0051,-0.0001,-0.0058,-0.0101,-0.0083,-0.0189,-0.0191,-0.0189,-0.0176,-0.0162,-0.0178,-0.0169,-0.017,-0.017,0,0.0297,0.032,0.0356,0.0367,0.0368,0.0376,0.0385,0.0374,0.0353,0.0339,0.0291,0.0237,0.0183,0.0111,0.0001,0.0017,-0.0073,-0.0126,-0.0129,-0.0151,-0.0197,-0.0197,-0.0184,-0.0174,-0.0174,-0.0174,-0.0173,0,0.0339,0.0368,0.0403,0.0405,0.0411,0.0427,0.0421,0.041,0.0422,0.0397,0.0421,0.032,0.0296,0.0168,0.0053,0.0023,-0.0051,-0.0117,-0.0206,-0.0206,-0.0223,-0.0224,-0.0217,-0.0217,-0.0217,-0.0217,-0.0217,0,0.0374,0.04,0.0436,0.0453,0.0497,0.0474,0.0509,0.0502,0.051,0.0555,0.0461,0.0494,0.0308,0.0243,0.01,-0.0033,-0.003,-0.0182,-0.0215,-0.02,-0.0198,-0.0226,-0.0227,-0.0218,-0.0218,-0.0218,-0.0217,0,0.0391,0.0418,0.0452,0.0488,0.0517,0.053,0.0571,0.0602,0.0607,0.0672,0.0674,0.0634,0.0556,0.0379,0.0206,0.0052,-0.0089,-0.0153,-0.0098,-0.0124,-0.0225,-0.0223,-0.0253,-0.0253,-0.0253,-0.0254,-0.0254,0,0.0403,0.0433,0.0481,0.0517,0.0535,0.0576,0.0618,0.064,0.0686,0.0779,0.0824,0.0788,0.0784,0.0542,0.0254,0.0003,-0.0052,-0.0157,-0.0234,-0.0202,-0.0231,-0.0228,-0.0225,-0.0225,-0.0225,-0.0225,-0.0225,0,0.0421,0.0429,0.0459,0.0536,0.0594,0.0658,0.0729,0.0804,0.0859,0.0968,0.11,0.1124,0.0881,0.0638,0.0275,0.0094,-0.0116,-0.0164,-0.015,-0.0218,-0.0179,-0.0206,-0.0204,-0.0224,-0.0224,-0.0224,-0.0224,-0.0224,0.0424,0.0438,0.0487,0.0561,0.0633,0.075,0.0845,0.0965,0.1118,0.1295,0.1283,0.1315,0.1003,0.0536,0.0239,-0.0102,-0.0108,-0.0241,-0.0241,-0.024,-0.0233,-0.0197,-0.0243,-0.0243,-0.0243,-0.0243,-0.0243,0,0.0427,0.0461,0.0525,0.0621,0.0727,0.0761,0.0935,0.1077,0.1324,0.141,0.1525,0.1245,0.0957,0.06,0.0091,-0.02,-0.0239,-0.0283,-0.0274,-0.0272,-0.0271,-0.0267,-0.0284,-0.0285,-0.0286,-0.0287,0,0,0.0426,0.0486,0.0531,0.0709,0.0795,0.0989,0.1117,0.1347,0.1461,0.1595,0.1571,0.147,0.1034,0.066,0.0269,-0.0004,-0.007,-0.006,0.0002,0.0061,0.0065,-0.0221,-0.0208,0,0,0,0,0]}],[{"header":{"parameterUnit":"m.s-1","parameterCategory":2,"la1":30.2991,"la2":30.254,"lo1":-89.0895,"lo2":-89.0444,"dy":0.0017,"dx":0.0017,"nx":28,"ny":28,"refTime":"2024-08-20T03:00:00:Z","depth":"4","parameterNumber":2,"parameterNumberName":"U-component_of_CURRENTS"},"data":[0,0,0,0,0,0,0,0,0,0,0,0,0,0,0,0,0,0,0,0,0,0,0,0,0,0,0,0,0,0,0,0,0,0,0,0,0,0,0,0,0,0,0,0,0,0,0,0,0,0,0,0,0,0,0,0,0,0,0.1184,0.1185,0,0.1259,0.1259,0.1259,0.1303,0.1304,0.1304,0.1305,0.1406,0.1408,0.141,0,0,0,0,0,0,0,0,0,0,0,0,0,0.1126,0.1126,0.1184,0.1185,0.1187,0.1258,0.1259,0.1259,0.1303,0.1304,0.1305,0.1305,0.1406,0.1408,0.1411,0,0,0,0,0,0,0,0,0,0,0,0,0,0.1165,0.1126,0.1184,0.1221,0.1226,0.1258,0.1259,0.126,0.1303,0.1304,0.1305,0.1306,0.1405,0.1408,0.1411,0.1409,0,0,0.142,0.1422,0,0,0,0,0,0,0,0,0.1163,0.1166,0.1214,0.1219,0.1224,0.1278,0.1276,0.1313,0.1302,0.1267,0.1305,0.1306,0.1369,0.1375,0.1378,0.1414,0.1418,0.1421,0.1422,0.1424,0.1425,0,0,0,0,0,0,0,0.116,0.1164,0.1208,0.1216,0.1222,0.1251,0.1256,0.1283,0.1307,0.1271,0.1275,0.1292,0.1371,0.1375,0.1381,0.142,0.1421,0.1423,0.1425,0.1426,0.1563,0.1565,0,0,0,0,0,0,0.1158,0.1161,0.1206,0.1211,0.1202,0.1251,0.1257,0.1255,0.1307,0.1317,0.1291,0.1294,0.1369,0.1377,0.1385,0.1479,0.1424,0.1427,0.1428,0.1561,0.1563,0.1565,0,0,0,0,0,0,0.1156,0.1161,0.1203,0.1193,0.1201,0.1251,0.1248,0.1256,0.1296,0.1323,0.1333,0.1329,0.137,0.138,0.144,0.148,0.1428,0.1431,0.1559,0.1562,0.1564,0.1607,0,0,0,0,0,0,0.1154,0.1159,0.1171,0.1192,0.1202,0.1246,0.1248,0.1257,0.1306,0.1311,0.1358,0.1366,0.1372,0.1436,0.1444,0.1483,0.1433,0.1557,0.156,0.1563,0.1604,0.1611,0.1618,0,0,0,0,0,0.1151,0.1158,0.117,0.1177,0.1211,0.1248,0.1255,0.1291,0.1307,0.1329,0.1364,0.1367,0.1463,0.144,0.1448,0.149,0.1555,0.1559,0.1563,0.1601,0.161,0.1617,0,0,0,0,0,0,0.1134,0.1164,0.1178,0.1192,0.1231,0.1258,0.1286,0.131,0.1353,0.1366,0.1387,0.1398,0.1462,0.1473,0.1447,0.154,0.1511,0.1516,0.1536,0.1545,0.1552,0.1501,0.1436,0,0,0,0,0,0.1137,0.1155,0.1187,0.1205,0.1224,0.1261,0.1287,0.1312,0.1349,0.137,0.1405,0.1444,0.1478,0.151,0.1536,0.159,0.1591,0.1624,0.1631,0.1637,0.1603,0.1633,0.1639,0.1578,0.1578,0.1578,0,0,0.1142,0.1158,0.1173,0.1206,0.1234,0.1261,0.1278,0.1325,0.1352,0.1374,0.1432,0.1468,0.1496,0.1552,0.1583,0.1573,0.1668,0.1642,0.1646,0.1608,0.1638,0.1644,0.1648,0.1581,0.1581,0.158,0,0,0.1143,0.1169,0.118,0.1214,0.1266,0.1287,0.1309,0.1358,0.1386,0.1438,0.1465,0.1518,0.1578,0.1603,0.162,0.1681,0.1697,0.1717,0.172,0.1752,0.1756,0.176,0.1818,0.1826,0.1728,0.1728,0.1729,0,0.1153,0.1155,0.1195,0.1214,0.1239,0.13,0.1316,0.1357,0.1424,0.1447,0.1463,0.1554,0.1586,0.1643,0.1665,0.1693,0.1726,0.1687,0.1759,0.1762,0.1765,0.1823,0.1831,0.1731,0.1731,0.173,0.173,0,0.1154,0.117,0.1184,0.1221,0.1255,0.1287,0.134,0.1393,0.1435,0.1469,0.1541,0.1585,0.1639,0.1673,0.1683,0.174,0.1765,0.1758,0.173,0.1773,0.1833,0.1841,0.1735,0.1734,0.1733,0.1732,0,0,0.1136,0.1174,0.1183,0.1191,0.1259,0.1282,0.1339,0.1392,0.1442,0.1504,0.1561,0.1611,0.1653,0.1674,0.1723,0.1746,0.1818,0.1765,0.1766,0.181,0.1922,0.1827,0.1826,0.1835,0.1836,0.1836,0.1974,0,0.1125,0.1142,0.1165,0.1195,0.1206,0.1273,0.1317,0.1384,0.1454,0.154,0.1589,0.1677,0.1655,0.1725,0.1732,0.1802,0.1832,0.1782,0.1882,0.1885,0.1783,0.1828,0.1838,0.198,0.1981,0.1983,0.1983,0,0.1112,0.1121,0.1135,0.1167,0.118,0.122,0.1307,0.135,0.1476,0.1546,0.1626,0.1703,0.1778,0.1761,0.1836,0.1815,0.1856,0.1888,0.1895,0.1777,0.18,0.1917,0.1997,0.1996,0.1995,0.1994,0.1994,0,0.1061,0.1097,0.11,0.1119,0.1176,0.1206,0.1246,0.1357,0.142,0.1585,0.1692,0.1757,0.1855,0.1872,0.1946,0.1913,0.2031,0.2001,0.1948,0.1945,0.197,0.1964,0.2032,0.2031,0.2031,0.2031,0.203,0,0.1014,0.1015,0.1091,0.1091,0.1122,0.1174,0.1242,0.1315,0.1458,0.1548,0.17,0.1804,0.1887,0.198,0.1987,0.1996,0.2069,0.1935,0.1958,0.1995,0.199,0.1979,0.1971,0.2036,0.2035,0.2034,0.2033,0,0.0909,0.0975,0.0971,0.1044,0.1094,0.1103,0.1238,0.1283,0.1459,0.1602,0.1681,0.1875,0.1987,0.2074,0.215,0.2069,0.2089,0.2083,0.2163,0.2191,0.1972,0.1965,0.2003,0.2001,0.1998,0.1997,0.1995,0,0.0837,0.0826,0.0921,0.0949,0.098,0.1052,0.1107,0.1268,0.1327,0.1619,0.1661,0.1893,0.2003,0.2047,0.2109,0.2148,0.2114,0.2118,0.1961,0.1942,0.1962,0.1959,0.1955,0.1992,0.1991,0.199,0.199,0,0.0654,0.0704,0.0709,0.0802,0.0869,0.0933,0.1025,0.1092,0.1283,0.1483,0.1645,0.1774,0.1913,0.1964,0.205,0.205,0.2095,0.2094,0.2096,0.1948,0.1929,0.195,0.1949,0.1982,0.1983,0.1984,0.1985,0,0.0516,0.0492,0.0555,0.062,0.0705,0.0778,0.0864,0.0971,0.1089,0.1413,0.145,0.1709,0.1877,0.1919,0.1974,0.1997,0.193,0.1828,0.1842,0.1852,0.1735,0.1684,0.1672,0,0,0,0,0,0.0392,0.0369,0.0382,0.0469,0.0543,0.0626,0.0782,0.0881,0.1118,0.1181,0.1324,0.1461,0.1621,0.1725,0.1714,0.1871,0.1911,0.1845,0.1792,0.194,0.1949,0.1823,0,0,0,0,0,0,0.03,0.0305,0.0323,0.033,0.0372,0.047,0.0576,0.0746,0.0789,0.1043,0.1124,0.1329,0.1478,0.16,0.1668,0.1701,0.1628,0.1987,0.1983,0.1935,0.1943,0.195,0.1824,0,0,0,0,0]},{"header":{"parameterUnit":"m.s-1","parameterCategory":2,"la1":30.2991,"la2":30.254,"lo1":-89.0895,"lo2":-89.0444,"dy":0.0017,"dx":0.0017,"nx":28,"ny":28,"refTime":"2024-08-20T03:00:00:Z","depth":"4","parameterNumber":3,"parameterNumberName":"V-component_of_CURRENTS"},"data":[0,0,0,0,0,0,0,0,0,0,0,0,0,0,0,0,0,0,0,0,0,0,0,0,0,0,0,0,0,0,0,0,0,0,0,0,0,0,0,0,0,0,0,0,0,0,0,0,0,0,0,0,0,0,0,0,0,0,0.0167,0.0167,0,0.0137,0.0137,0.0136,0.0112,0.0112,0.0112,0.0111,0.0017,0.0015,0.0013,0,0,0,0,0,0,0,0,0,0,0,0,0,0.0155,0.0155,0.0167,0.0167,0.0166,0.0137,0.0137,0.0136,0.0112,0.0112,0.0112,0.0111,0.0018,0.0015,0.0012,0,0,0,0,0,0,0,0,0,0,0,0,0,0.0145,0.0155,0.0167,0.0152,0.015,0.0137,0.0137,0.0136,0.0112,0.0112,0.0111,0.0111,0.0019,0.0016,0.0012,-0.0005,0,0,0.0001,-0.0,0,0,0,0,0,0,0,0,0.0146,0.0145,0.0154,0.0153,0.0151,0.0129,0.0098,0.0086,0.0112,0.0125,0.0111,0.0111,0.005,0.0044,0.0038,-0.001,-0.0014,0.0001,-0.0001,-0.0003,-0.0004,0,0,0,0,0,0,0,0.0146,0.0146,0.0154,0.0154,0.0152,0.013,0.0128,0.0095,0.0087,0.0124,0.0123,0.0121,0.0048,0.0041,0.0035,-0.0015,0.0001,-0.0002,-0.0004,-0.0006,-0.0095,-0.0096,0,0,0,0,0,0,0.0155,0.0147,0.0155,0.0153,0.0149,0.013,0.0129,0.0135,0.0089,0.0082,0.0121,0.012,0.0047,0.0039,0.0032,0.001,-0.0003,-0.0006,-0.0008,-0.0095,-0.0095,-0.0096,0,0,0,0,0,0,0.0155,0.0157,0.0156,0.015,0.0148,0.0131,0.0138,0.0135,0.013,0.0087,0.0079,0.0121,0.0047,0.0037,0.0003,0.0006,-0.0008,-0.0011,-0.0095,-0.0095,-0.0096,-0.0035,0,0,0,0,0,0,0.0155,0.0157,0.0167,0.0151,0.0149,0.015,0.0139,0.0134,0.013,0.0128,0.0084,0.0075,0.0046,0.0008,-0.0001,0.0001,-0.0014,-0.0094,-0.0095,-0.0095,-0.0037,-0.0034,-0.0031,0,0,0,0,0,0.0155,0.0169,0.0168,0.0169,0.0163,0.015,0.0147,0.0133,0.013,0.0128,0.0099,0.0077,-0.0001,0.0006,-0.0005,-0.0005,-0.0094,-0.0095,-0.0095,-0.0038,-0.0034,-0.0031,0,0,0,0,0,0,0.0166,0.0167,0.0166,0.0179,0.0167,0.0147,0.0148,0.0138,0.0115,0.0113,0.0073,0.0062,0.0034,0.0003,0.0012,-0.0034,-0.0052,-0.0054,-0.0005,-0.0001,0.0002,0.0044,-0.0017,0,0,0,0,0,0.0176,0.0189,0.0177,0.0188,0.0185,0.0168,0.0163,0.0152,0.013,0.012,0.0091,0.0055,0.0023,0.0003,-0.003,-0.0055,-0.0074,-0.0064,-0.006,-0.0057,-0.0032,-0.0054,-0.0049,-0.0098,-0.0098,-0.0098,0,0,0.0183,0.0186,0.0193,0.0191,0.0183,0.0185,0.0164,0.0159,0.0162,0.0112,0.0104,0.0065,0.0018,-0.0008,-0.0023,-0.0032,-0.006,-0.0058,-0.0055,-0.003,-0.0054,-0.0049,-0.0044,-0.0098,-0.0098,-0.0098,0,0,0.0202,0.0207,0.0223,0.0217,0.021,0.0199,0.02,0.0181,0.0175,0.0157,0.0124,0.0093,0.0041,0.0015,-0.0007,-0.0007,-0.0042,-0.0028,0.0022,-0.0,0.0004,0.0008,-0.0031,-0.0031,-0.0027,-0.0027,-0.0027,0,0.0211,0.0235,0.0222,0.0233,0.0241,0.0209,0.0226,0.021,0.0183,0.0187,0.016,0.0105,0.0057,0.0041,0.0038,0.0003,-0.002,0.0014,0.0007,0.001,0.0013,-0.0028,-0.0029,-0.0024,-0.0024,-0.0025,-0.0025,0,0.0237,0.026,0.0267,0.0279,0.0279,0.0287,0.0269,0.0265,0.0251,0.0237,0.022,0.016,0.0133,0.0102,0.0068,0.0065,0.0037,0.0016,0.0005,0.0022,-0.0024,-0.0025,-0.002,-0.0021,-0.0022,-0.0023,0,0,0.0255,0.0285,0.029,0.0318,0.031,0.0319,0.0322,0.0328,0.0347,0.0303,0.0323,0.0257,0.0231,0.0206,0.0155,0.0131,0.0111,0.0089,0.0087,0.0065,0.0053,0.001,0.0004,0.0092,0.0092,0.0093,0.0005,0,0.0285,0.0334,0.0335,0.0382,0.0408,0.0395,0.0411,0.0407,0.0391,0.0394,0.034,0.0327,0.0267,0.0254,0.0222,0.0138,0.0114,0.0137,0.0028,0.0025,-0.0002,0.0003,0.0094,0.0004,0.0003,0.0003,0.0003,0,0.031,0.0348,0.0408,0.0464,0.0475,0.0497,0.0535,0.0545,0.053,0.0515,0.0492,0.0441,0.0393,0.0342,0.0232,0.0249,0.017,0.0103,0.0098,0.0046,-0.0019,-0.0015,-0.0001,-0.0001,-0.0,-0.0,0.0,0,0.0345,0.04,0.0463,0.0479,0.0525,0.0562,0.0587,0.0591,0.0618,0.06,0.0598,0.0534,0.0493,0.0401,0.0243,0.0244,0.0116,0.0093,-0.0017,-0.0022,0.0017,0.0014,0.0041,0.0041,0.0041,0.0041,0.0042,0,0.0381,0.0434,0.0493,0.0532,0.0616,0.0626,0.0705,0.0709,0.0725,0.0749,0.0673,0.065,0.0509,0.0404,0.0276,0.0113,0.0135,0.0004,-0.0038,0.0038,0.0039,0.0014,0.0012,0.0038,0.0039,0.004,0.004,0,0.0416,0.0449,0.0534,0.0609,0.064,0.0705,0.0791,0.0836,0.0834,0.0857,0.0852,0.0743,0.059,0.0432,0.0254,0.0147,-0.0001,-0.0061,0.0022,-0.0017,-0.0129,-0.0127,-0.0174,-0.0176,-0.0178,-0.0179,-0.0181,0,0.044,0.0486,0.0599,0.0651,0.0697,0.0791,0.0851,0.0892,0.0921,0.0895,0.0892,0.0766,0.0665,0.0382,0.0212,-0.0026,-0.0061,-0.0132,-0.0108,-0.011,-0.0147,-0.0142,-0.0138,-0.0183,-0.0184,-0.0184,-0.0185,0,0.0489,0.0533,0.06,0.0712,0.0794,0.0889,0.0965,0.0986,0.1006,0.1012,0.0913,0.0764,0.0584,0.0365,0.0174,0.0004,-0.0081,-0.015,-0.0147,-0.0126,-0.0122,-0.0156,-0.015,-0.0191,-0.019,-0.0189,-0.0189,0,0.0525,0.0573,0.0659,0.0751,0.0857,0.0934,0.0982,0.0997,0.1029,0.0979,0.0939,0.0749,0.0649,0.0377,0.0197,0.0027,-0.0009,-0.0051,-0.0054,-0.0049,0.0008,0.0032,-0.0013,0,0,0,0,0,0.055,0.0594,0.0684,0.0783,0.0889,0.0952,0.1026,0.1052,0.1055,0.0995,0.0971,0.0797,0.0518,0.0393,0.0216,0.0163,-0.004,-0.005,-0.0089,-0.0224,-0.0217,-0.0175,0,0,0,0,0,0,0.0564,0.0647,0.0678,0.0789,0.0855,0.0975,0.102,0.1029,0.0985,0.0959,0.081,0.0754,0.0482,0.0621,0.0212,0.016,0.0111,-0.0172,-0.0176,-0.0228,-0.0221,-0.0216,-0.017,0,0,0,0,0]}]]